OBJECT K

Last updated on Tue Oct 09 2018 08:17:17 GMT+0000 (Coordinated Universal Time)

1 43189U 18014K 18282.22678372 .00000804 00000-0 75760-4 0 9998 2 43189 97.7162 189.1785 0012403 125.5921 234.6458 14.96511555 35926

Satellite not in orbit

OBJECT K